This is the latest recevied weather packets stored in our database for station/object SALT. If no packets are shown the sender has not sent any weather packets the latest 10 day(s).
| Time | Temp. | Humidity | Pressure | Rain* | Wind** | Luminosity | Snow |
|---|---|---|---|---|---|---|---|
| 1777575446 | 10° C | 52% | 1028 hPa | 0 mm | - | - | - |
| 1777574843 | 9.44° C | 53% | 1028.1 hPa | 0 mm | - | - | - |
| 1777574241 | 9.44° C | 53% | 1028.2 hPa | 0 mm | - | - | - |
| 1777573637 | 9.44° C | 54% | 1028.2 hPa | 0 mm | - | - | - |
| 1777573036 | 9.44° C | 52% | 1028.2 hPa | 0 mm | - | - | - |
| 1777572431 | 10° C | 53% | 1028.3 hPa | 0 mm | - | - | - |
| 1777571829 | 8.89° C | 54% | 1028.3 hPa | 0 mm | - | - | - |
| 1777571225 | 8.33° C | 54% | 1028.4 hPa | 0 mm | - | - | - |
| 1777570623 | 8.33° C | 56% | 1028.6 hPa | 0 mm | - | - | - |
| 1777570020 | 8.33° C | 57% | 1028.7 hPa | 0 mm | - | - | - |
| 1777569418 | 8.33° C | 60% | 1028.7 hPa | 0 mm | - | - | - |
| 1777568813 | 7.78° C | 62% | 1028.7 hPa | 0 mm | - | - | - |
| 1777568210 | 7.78° C | 60% | 1028.8 hPa | 0 mm | - | - | - |
| 1777567607 | 8.33° C | 60% | 1028.8 hPa | 0 mm | - | - | - |
| 1777567004 | 8.33° C | 58% | 1028.7 hPa | 0 mm | - | - | - |
| 1777566466 | 8.33° C | 58% | 1028.6 hPa | 0 mm | - | - | - |
| 1777566401 | 8.33° C | 58% | 1028.6 hPa | 0 mm | - | - | - |
| 1777565798 | 8.89° C | 55% | 1028.6 hPa | 0 mm | - | - | - |
| 1777565194 | 8.33° C | 53% | 1028.6 hPa | 0 mm | - | - | - |
| 1777564591 | 8.33° C | 50% | 1028.7 hPa | 0 mm | - | - | - |
| 1777563989 | 7.78° C | 50% | 1028.6 hPa | 0 mm | - | - | - |
| 1777563386 | 7.78° C | 52% | 1028.7 hPa | 0 mm | - | - | - |
| 1777562783 | 7.22° C | 52% | 1028.7 hPa | 0 mm | - | - | - |
| 1777562180 | 7.22° C | 51% | 1028.7 hPa | 0 mm | - | - | - |
| 1777561576 | 7.22° C | 53% | 1028.7 hPa | 0 mm | - | - | - |
* Rain latest 24 hours (hover to see other rain measurements)
** Current wind speed in m/s (hover to see current wind gust speed)